| time (UTC) | temp C | wind direction | speed KPH | gust KPH | rain 1hr cm | rain 24hr cm | rain mn cm | humidity % | barometer mb |
| 20260902143038 | 28 | 0 | 0.0 | 1.6 | 0.00 | 0.00 | 0.00 | 49 | 1016.2 |
| 20260902141540 | 28 | 118 | 0.0 | 4.8 | 0.00 | 0.00 | 0.00 | 51 | 1016.2 |
| 20260902140036 | 28 | 0 | 0.0 | 4.8 | 0.00 | 0.00 | 0.00 | 52 | 1016.0 |
| 20260902134543 | 27 | 104 | 0.0 | 1.6 | 0.00 | 0.00 | 0.00 | 53 | 1016.0 |
| 20260902133038 | 26 | 0 | 0.0 | 1.6 | 0.00 | 0.00 | 0.00 | 56 | 1015.9 |
| 20260902131541 | 26 | 0 | 0.0 | 0.0 | 0.00 | 0.00 | 0.00 | 58 | 1015.7 |
| 20260902130043 | 25 | 0 | 0.0 | 0.0 | 0.00 | 0.00 | 0.00 | 61 | 1015.6 |
| 20260902124542 | 24 | 0 | 0.0 | 0.0 | 0.00 | 0.00 | 0.00 | 62 | 1015.5 |
| 20260902123040 | 24 | 0 | 0.0 | 0.0 | 0.00 | 0.00 | 0.00 | 62 | 1015.3 |
| 20260902121542 | 24 | 0 | 0.0 | 0.0 | 0.00 | 0.00 | 0.00 | 60 | 1015.1 |
| 20260902120045 | 25 | 0 | 0.0 | 0.0 | 0.00 | 0.00 | 0.00 | 60 | 1015.1 |
| 20260902114540 | 25 | 0 | 0.0 | 0.0 | 0.00 | 0.00 | 0.00 | 58 | 1015.1 |
| 20260902113048 | 25 | 0 | 0.0 | 0.0 | 0.00 | 0.00 | 0.00 | 59 | 1015.2 |
| 20260902111545 | 25 | 0 | 0.0 | 1.6 | 0.00 | 0.00 | 0.00 | 60 | 1015.2 |
| 20260902110040 | 25 | 0 | 0.0 | 0.0 | 0.00 | 0.00 | 0.00 | 59 | 1015.2 |
| 20260902104545 | 25 | 0 | 0.0 | 0.0 | 0.00 | 0.00 | 0.00 | 58 | 1015.1 |
| 20260902103042 | 25 | 0 | 0.0 | 0.0 | 0.00 | 0.00 | 0.00 | 59 | 1015.2 |
| 20260902101540 | 25 | 0 | 0.0 | 0.0 | 0.00 | 0.00 | 0.00 | 58 | 1015.2 |
| 20260902100042 | 25 | 0 | 0.0 | 0.0 | 0.00 | 0.00 | 0.00 | 58 | 1015.1 |
| 20260902094537 | 25 | 0 | 0.0 | 0.0 | 0.00 | 0.00 | 0.00 | 57 | 1015.0 |
| 20260902093043 | 26 | 0 | 0.0 | 0.0 | 0.00 | 0.00 | 0.00 | 55 | 1015.1 |
| 20260902091548 | 26 | 0 | 0.0 | 0.0 | 0.00 | 0.00 | 0.00 | 54 | 1015.1 |
| 20260902090037 | 26 | 0 | 0.0 | 0.0 | 0.00 | 0.00 | 0.00 | 53 | 1015.2 |
| 20260902084542 | 27 | 0 | 0.0 | 0.0 | 0.00 | 0.00 | 0.00 | 51 | 1015.1 |
| 20260902083042 | 27 | 0 | 0.0 | 0.0 | 0.00 | 0.00 | 0.00 | 49 | 1015.1 |
| 20260902081540 | 28 | 0 | 0.0 | 1.6 | 0.00 | 0.00 | 0.00 | 48 | 1015.2 |
| 20260902080035 | 28 | 111 | 1.6 | 6.4 | 0.00 | 0.00 | 0.00 | 47 | 1015.1 |
| 20260902074541 | 28 | 0 | 0.0 | 0.0 | 0.00 | 0.00 | 0.00 | 47 | 1015.1 |
| 20260902073040 | 28 | 0 | 0.0 | 11.3 | 0.00 | 0.00 | 0.00 | 46 | 1015.2 |
| 20260902071543 | 29 | 118 | 0.0 | 8.0 | 0.00 | 0.00 | 0.00 | 46 | 1015.3 |
| 20260902070042 | 29 | 112 | 0.0 | 6.4 | 0.00 | 0.00 | 0.00 | 46 | 1015.3 |
| 20260902064551 | 29 | 153 | 1.6 | 9.7 | 0.00 | 0.00 | 0.00 | 45 | 1015.3 |
| 20260902063046 | 30 | 118 | 1.6 | 8.0 | 0.00 | 0.00 | 0.00 | 45 | 1015.1 |
| 20260902061552 | 30 | 156 | 0.0 | 12.9 | 0.00 | 0.00 | 0.00 | 45 | 1015.0 |
| 20260902060038 | 30 | 129 | 0.0 | 9.7 | 0.00 | 0.00 | 0.00 | 45 | 1014.9 |
| 20260902054545 | 30 | 150 | 0.0 | 4.8 | 0.00 | 0.00 | 0.00 | 44 | 1014.6 |
| 20260902053039 | 30 | 118 | 1.6 | 8.0 | 0.00 | 0.00 | 0.00 | 43 | 1014.4 |
| 20260902051543 | 30 | 127 | 3.2 | 11.3 | 0.00 | 0.00 | 0.00 | 42 | 1014.4 |
| 20260902050046 | 30 | 32 | 1.6 | 9.7 | 0.00 | 0.00 | 0.00 | 43 | 1014.4 |
| 20260902044543 | 28 | 141 | 0.0 | 4.8 | 0.00 | 0.00 | 0.00 | 46 | 1014.3 |
| 20260902043038 | 28 | 0 | 0.0 | 0.0 | 0.00 | 0.00 | 0.00 | 46 | 1014.1 |
| 20260902041539 | 28 | 0 | 0.0 | 0.0 | 0.00 | 0.00 | 0.00 | 45 | 1014.0 |
| 20260902040041 | 28 | 0 | 0.0 | 0.0 | 0.00 | 0.00 | 0.00 | 45 | 1014.0 |
| 20260902034555 | 28 | 0 | 0.0 | 0.0 | 0.00 | 0.00 | 0.00 | 45 | 1014.1 |
| 20260902033054 | 28 | 0 | 0.0 | 0.0 | 0.00 | 0.00 | 0.00 | 44 | 1014.1 |
| 20260902031540 | 29 | 0 | 0.0 | 0.0 | 0.00 | 0.00 | 0.00 | 44 | 1014.0 |
| 20260902030044 | 29 | 0 | 0.0 | 0.0 | 0.00 | 0.00 | 0.00 | 43 | 1013.7 |
| 20260902024545 | 30 | 0 | 0.0 | 0.0 | 0.00 | 0.00 | 0.00 | 41 | 1013.5 |
| 20260902023038 | 30 | 0 | 0.0 | 0.0 | 0.00 | 0.00 | 0.00 | 40 | 1013.4 |
| 20260902021538 | 30 | 0 | 0.0 | 0.0 | 0.00 | 0.00 | 0.00 | 40 | 1013.1 |
| 20260902020042 | 31 | 0 | 0.0 | 0.0 | 0.00 | 0.00 | 0.00 | 40 | 1013.0 |
| 20260902014540 | 31 | 0 | 0.0 | 0.0 | 0.00 | 0.00 | 0.00 | 40 | 1012.9 |
| 20260902013040 | 31 | 0 | 0.0 | 0.0 | 0.00 | 0.00 | 0.00 | 37 | 1012.7 |
| 20260902011544 | 32 | 0 | 0.0 | 0.0 | 0.00 | 0.00 | 0.00 | 36 | 1012.5 |
| 20260902010041 | 32 | 0 | 0.0 | 0.0 | 0.00 | 0.00 | 0.00 | 35 | 1012.5 |
| 20260902004541 | 33 | 0 | 0.0 | 0.0 | 0.00 | 0.00 | 0.00 | 33 | 1012.5 |
| 20260902003046 | 34 | 0 | 0.0 | 1.6 | 0.00 | 0.00 | 0.00 | 31 | 1012.5 |
| 20260902001542 | 34 | 0 | 0.0 | 3.2 | 0.00 | 0.00 | 0.00 | 30 | 1012.7 |
| 20260902000040 | 35 | 151 | 0.0 | 3.2 | 0.00 | 0.00 | 0.00 | 29 | 1012.8 |
| 20260901234550 | 35 | 0 | 0.0 | 4.8 | 0.00 | 0.00 | 0.00 | 28 | 1012.8 |
| 20260901233044 | 35 | 171 | 1.6 | 4.8 | 0.00 | 0.00 | 0.00 | 28 | 1012.9 |
| 20260901231541 | 35 | 167 | 0.0 | 4.8 | 0.00 | 0.00 | 0.00 | 29 | 1013.0 |
| 20260901230041 | 35 | 180 | 3.2 | 6.4 | 0.00 | 0.00 | 0.00 | 29 | 1013.0 |
| 20260901224551 | 35 | 0 | 0.0 | 4.8 | 0.00 | 0.00 | 0.00 | 28 | 1013.0 |
| 20260901223040 | 36 | 168 | 0.0 | 4.8 | 0.00 | 0.00 | 0.00 | 27 | 1013.0 |
| 20260901221544 | 36 | 174 | 1.6 | 6.4 | 0.00 | 0.00 | 0.00 | 26 | 1013.1 |
| 20260901220042 | 36 | 166 | 3.2 | 8.0 | 0.00 | 0.00 | 0.00 | 25 | 1013.1 |
| 20260901214545 | 36 | 167 | 1.6 | 6.4 | 0.00 | 0.00 | 0.00 | 26 | 1013.2 |
| 20260901213044 | 36 | 169 | 0.0 | 6.4 | 0.00 | 0.00 | 0.00 | 26 | 1013.3 |
| 20260901211542 | 36 | 174 | 1.6 | 6.4 | 0.00 | 0.00 | 0.00 | 26 | 1013.4 |
| 20260901210041 | 36 | 0 | 0.0 | 6.4 | 0.00 | 0.00 | 0.00 | 27 | 1013.6 |
| 20260901204540 | 36 | 165 | 1.6 | 6.4 | 0.00 | 0.00 | 0.00 | 27 | 1013.7 |
| 20260901203048 | 36 | 171 | 0.0 | 8.0 | 0.00 | 0.00 | 0.00 | 29 | 1013.8 |
| 20260901201540 | 35 | 205 | 3.2 | 8.0 | 0.00 | 0.00 | 0.00 | 31 | 1014.1 |
| 20260901200059 | 35 | 162 | 1.6 | 6.4 | 0.00 | 0.00 | 0.00 | 30 | 1014.4 |
| 20260901194549 | 35 | 217 | 1.6 | 8.0 | 0.00 | 0.00 | 0.00 | 31 | 1014.4 |
| 20260901193044 | 35 | 171 | 3.2 | 8.0 | 0.00 | 0.00 | 0.00 | 30 | 1014.6 |
| 20260901191545 | 35 | 197 | 1.6 | 8.0 | 0.00 | 0.00 | 0.00 | 30 | 1014.8 |
| 20260901190051 | 35 | 181 | 1.6 | 9.7 | 0.00 | 0.00 | 0.00 | 32 | 1015.0 |
| 20260901184546 | 35 | 148 | 1.6 | 4.8 | 0.00 | 0.00 | 0.00 | 33 | 1015.3 |
| 20260901183041 | 34 | 162 | 0.0 | 4.8 | 0.00 | 0.00 | 0.00 | 34 | 1015.7 |
| 20260901181549 | 34 | 174 | 1.6 | 6.4 | 0.00 | 0.00 | 0.00 | 33 | 1015.8 |
| 20260901180043 | 34 | 180 | 3.2 | 8.0 | 0.00 | 0.00 | 0.00 | 34 | 1016.1 |
| 20260901174543 | 35 | 151 | 1.6 | 8.0 | 0.00 | 0.00 | 0.00 | 33 | 1016.2 |
| 20260901173047 | 35 | 167 | 0.0 | 4.8 | 0.00 | 0.00 | 0.00 | 32 | 1016.3 |
| 20260901171556 | 35 | 140 | 0.0 | 4.8 | 0.00 | 0.00 | 0.00 | 33 | 1016.5 |
| 20260901170039 | 33 | 158 | 1.6 | 9.7 | 0.00 | 0.00 | 0.00 | 35 | 1016.6 |
| 20260901164544 | 33 | 0 | 0.0 | 8.0 | 0.00 | 0.00 | 0.00 | 37 | 1016.9 |
| 20260901163040 | 32 | 0 | 0.0 | 4.8 | 0.00 | 0.00 | 0.00 | 39 | 1016.9 |
| 20260901161545 | 32 | 127 | 0.0 | 3.2 | 0.00 | 0.00 | 0.00 | 39 | 1017.0 |
| 20260901160041 | 32 | 84 | 0.0 | 3.2 | 0.00 | 0.00 | 0.00 | 41 | 1017.0 |
| 20260901154625 | 31 | 93 | 0.0 | 3.2 | 0.00 | 0.00 | 0.00 | 44 | 1017.0 |
| 20260901153041 | 31 | 0 | 0.0 | 1.6 | 0.00 | 0.00 | 0.00 | 46 | 1016.9 |
| 20260901151545 | 30 | 0 | 0.0 | 1.6 | 0.00 | 0.00 | 0.00 | 51 | 1016.8 |
| 20260901150043 | 30 | 0 | 0.0 | 4.8 | 0.00 | 0.00 | 0.00 | 62 | 1017.0 |
| 20260901144541 | 29 | 0 | 0.0 | 3.2 | 0.00 | 0.00 | 0.00 | 64 | 1017.1 |